Location: American Canyon
(38.1966°N, 122.1514°W)
Time: 16:28:48
(UTC+00:00)

Cosmos 2228 - Pass Details

Date: 29 October 2020
Orbit: 590 x 617 km, 82.5° (Epoch: 23 November)

Event Time Altitude Azimuth Distance (km) Brightness Sun altitude
Rises 12:57:02 0° 347° (NNW) 2,881 6.3 -19.2°
Reaches altitude 10° 12:59:17 10° 343° (NNW) 1,976 5.4 -18.8°
Maximum altitude 13:03:33 54° 267° (W) 750 3.1 -17.9°
Drops below altitude 10° 13:07:49 10° 190° (S) 1,971 5.6 -17.1°
Sets 13:10:03 0° 185° (S) 2,873 6.5 -16.7°
